Showing default

OPS 6679 (VELA 8), 2766

Orbit data source: Space-Track

OPS 6679 (VELA 8), 2766 is a payload satellite owned by USAF SSD (US) in HEO that was launched on Fri, 28 Apr 1967 UTC via a TITAN IIIC launch vehicle from the Air Force Eastern Test Range (AFETR). Payloads include a variety of satellites, spacecraft, and rockets equipped with specific instruments for various scientific and technological missions. These include communications satellites like Starlink; space stations such as the ISS; scientific satellites like the Hubble; Earth observation satellites from companies like Planet Labs, Umbra, and HawkEye 360; GPS; miniature CubeSats for education and research; and military/defense satellites.

Loading next visibility...
OPS 6679 (VELA 8) details
Identifier
2766, 1967-040B
Orbit
HEO
Last TLE updatein 17 hours
Origin
Flag of USUSAF SSD (US)
ManufacturerTRW
MissionDefense Early Warn
Bus & MotorVELA, BE-3
Mass~348 kg wet, 221 kg dry
Launch date (UTC)
1967-04-28 (58 years ago)
Launch vehicle
TITAN IIIC
Launch site
Air Force Eastern Test Range (AFETR)
Object type
Payload
Rocket body
Debris
Shape & HBRPoly, 1.42 m
Radar Cross Section2.036 m²

Expand to show TLE details & history

TLE from in 17 hours
0 OPS 6679 (VELA 8)
1 02766U 67040B   24357.24341790 -.00001396  00000-0  00000-0 0  9999
2 02766  33.4034  16.3977 4624173  97.7900 358.1198  0.21268018  4346
Epoch: 2024-12-22T05:50Z
Definitive object data (Epoch: 2024-12-22T05:50:31.306Z)
Latitude33.29774°
Longitude-67.57712°
Altitude56,702.019 km
Speed3.046 km/s
True Right ascension07h 25m 20s
True Declination33° 16' 48"
Sunlit
Object was in daylight at TLE epoch
Visualization TLE readout
Latitude-7.8477°
Longitude-174.39889°
Altitude105,119.575 km
Speed1.946 km/s
Apparent Right ascension00h 16m 13s
Apparent Declination-9° 29' 60"
Sunlit
Object is in daylight
Visualization observer readout
Local Sidereal Time11:34:29
Azimuth340.192° N
Elevation-58.197°
Doppler factor1
Orbital elements
Apogee altitude166,998.194 km
Perigee altitude57,354.777 km
Semi-major axis118,554.623 km
Eccentricity0.4624173
Inclination33.4034°
RAAN16.3977°
Arg. of periapsis97.79°
True anomaly354.23753°
Mean anomaly358.1198°
Eccentric anomaly356.50436°
Mean motion0.05317 °/min
BSTARUnknown
Orbital period6770.75 mins
Loading maneuver chart data...
Loading historical data...
Loading historical data...
Loading historical data...
Loading historical data...
Loading historical data...
Loading historical data...
Loading historical data...

OPS 6679 (VELA 8) Visibility forecast

Observer location: undefined°, undefined

Span
Click to sort rows by Start time (UTC) header in descending order
Start Az.
Max El. time (UTC)
Max El. Az.
Max El.
End time (UTC)
End Az.
864 mins2024-12-21 22:08:40.317Z82.12° E2024-12-22 10:48:40.317Z145.155° SSE42.205°2024-12-22 12:32:40.317Z180.263° SSW
|